TimeCST,TemperatureF,Dew PointF,Humidity,Sea Level PressureIn,VisibilityMPH,Wind Direction,Wind SpeedMPH,Gust SpeedMPH,PrecipitationIn,Events,Conditions,WindDirDegrees,DateUTC
12:15 AM,47.5,22.3,37,29.55,10.0,WNW,11.5,-,N/A,,Scattered Clouds,290,2013-12-03 06:15:00
12:35 AM,46.6,22.5,39,29.53,10.0,West,11.5,-,N/A,,Clear,280,2013-12-03 06:35:00
12:55 AM,49.3,20.3,32,29.53,10.0,West,24.2,28.8,N/A,,Clear,270,2013-12-03 06:55:00
1:15 AM,48.9,20.3,32,29.53,10.0,West,17.3,23.0,N/A,,Clear,260,2013-12-03 07:15:00
1:35 AM,47.3,21.2,36,29.53,10.0,West,12.7,-,N/A,,Clear,270,2013-12-03 07:35:00
1:55 AM,43.2,22.1,43,29.53,10.0,WNW,8.1,-,N/A,,Clear,290,2013-12-03 07:55:00
2:15 AM,39.9,22.5,50,29.53,10.0,West,3.5,-,N/A,,Clear,280,2013-12-03 08:15:00
2:35 AM,41.0,22.1,47,29.53,10.0,West,4.6,-,N/A,,Clear,260,2013-12-03 08:35:00
2:55 AM,36.9,23.0,57,29.53,10.0,South,9.2,-,N/A,,Clear,190,2013-12-03 08:55:00
3:15 AM,35.6,23.4,61,29.53,10.0,SW,8.1,-,N/A,,Clear,230,2013-12-03 09:15:00
3:35 AM,38.5,23.5,55,29.52,10.0,SW,9.2,-,N/A,,Clear,220,2013-12-03 09:35:00
3:55 AM,37.4,23.0,56,29.51,10.0,SSW,5.8,-,N/A,,Clear,200,2013-12-03 09:55:00
4:15 AM,39.9,23.5,52,29.51,10.0,WSW,6.9,-,N/A,,Clear,240,2013-12-03 10:15:00
4:35 AM,41.4,25.2,53,29.50,10.0,West,17.3,-,N/A,,Clear,260,2013-12-03 10:35:00
4:55 AM,43.9,24.8,47,29.50,10.0,West,15.0,-,N/A,,Clear,270,2013-12-03 10:55:00
5:15 AM,42.4,25.0,50,29.50,10.0,SW,9.2,-,N/A,,Scattered Clouds,230,2013-12-03 11:15:00
5:35 AM,38.7,25.2,58,29.49,10.0,West,10.4,-,N/A,,Clear,260,2013-12-03 11:35:00
5:55 AM,36.3,25.3,64,29.49,10.0,SSW,4.6,-,N/A,,Clear,200,2013-12-03 11:55:00
6:15 AM,38.7,23.7,55,29.49,10.0,Calm,Calm,-,N/A,,Clear,0,2013-12-03 12:15:00
6:35 AM,35.2,24.8,66,29.49,10.0,Calm,Calm,-,N/A,,Scattered Clouds,0,2013-12-03 12:35:00
6:55 AM,34.5,25.7,70,29.49,10.0,Calm,Calm,-,N/A,,Scattered Clouds,0,2013-12-03 12:55:00
7:15 AM,36.3,24.8,63,29.47,10.0,Calm,Calm,-,N/A,,Scattered Clouds,0,2013-12-03 13:15:00
7:35 AM,33.1,24.6,71,29.48,10.0,Calm,Calm,-,N/A,,Scattered Clouds,0,2013-12-03 13:35:00
7:55 AM,34.7,25.0,68,29.49,10.0,Calm,Calm,-,N/A,,Mostly Cloudy,0,2013-12-03 13:55:00
8:15 AM,35.6,26.1,68,29.48,10.0,Calm,Calm,-,N/A,,Overcast,0,2013-12-03 14:15:00
8:35 AM,37.0,25.0,62,29.48,10.0,Calm,Calm,-,N/A,,Overcast,0,2013-12-03 14:35:00
8:55 AM,38.5,25.5,60,29.50,10.0,NW,5.8,-,N/A,,Overcast,320,2013-12-03 14:55:00
9:15 AM,41.2,26.4,56,29.51,10.0,North,11.5,20.7,N/A,,Overcast,350,2013-12-03 15:15:00
9:35 AM,40.8,26.6,57,29.53,10.0,NNW,17.3,23.0,N/A,,Overcast,340,2013-12-03 15:35:00
9:55 AM,35.4,28.9,77,29.55,10.0,North,20.7,-,N/A,,Overcast,360,2013-12-03 15:55:00
10:15 AM,33.4,28.9,84,29.57,10.0,NNW,27.6,-,N/A,,Overcast,340,2013-12-03 16:15:00
10:35 AM,29.3,24.4,82,29.55,10.0,North,20.7,24.2,N/A,,Overcast,360,2013-12-03 16:35:00
10:37 AM,28.4,24.8,86,29.55,10.0,North,23.0,-,N/A,,Overcast,360,2013-12-03 16:37:00
10:57 AM,28.4,23.0,80,29.57,10.0,NNW,16.1,-,N/A,,Overcast,340,2013-12-03 16:57:00
11:15 AM,29.8,23.2,76,29.59,10.0,NNW,16.1,20.7,N/A,,Overcast,340,2013-12-03 17:15:00
11:35 AM,28.8,22.1,76,29.59,10.0,NNW,16.1,-,N/A,,Overcast,340,2013-12-03 17:35:00
11:55 AM,28.2,22.1,78,29.56,10.0,North,19.6,23.0,N/A,,Overcast,350,2013-12-03 17:55:00
11:56 AM,28.4,21.2,74,29.56,10.0,North,19.6,23.0,N/A,,Overcast,350,2013-12-03 17:56:00
12:15 PM,27.5,21.0,77,29.57,10.0,NNW,21.9,26.5,N/A,,Overcast,340,2013-12-03 18:15:00
12:35 PM,25.0,19.8,81,29.59,10.0,NNW,24.2,31.1,N/A,,Overcast,340,2013-12-03 18:35:00
12:55 PM,24.3,18.9,80,29.60,10.0,NNW,24.2,27.6,N/A,,Overcast,340,2013-12-03 18:55:00
12:59 PM,24.8,17.6,74,29.60,10.0,North,26.5,33.4,N/A,,Overcast,350,2013-12-03 18:59:00
1:15 PM,23.9,16.2,72,29.61,10.0,NNW,27.6,34.5,N/A,,Overcast,340,2013-12-03 19:15:00
1:17 PM,24.8,15.8,69,29.61,10.0,NNW,28.8,34.5,N/A,,Overcast,340,2013-12-03 19:17:00
1:35 PM,24.3,14.9,68,29.61,10.0,NNW,28.8,34.5,N/A,,Overcast,340,2013-12-03 19:35:00
1:37 PM,24.8,15.8,69,29.61,10.0,NNW,28.8,34.5,N/A,,Overcast,340,2013-12-03 19:37:00
1:55 PM,23.5,15.1,70,29.61,10.0,North,27.6,38.0,N/A,,Overcast,350,2013-12-03 19:55:00
1:57 PM,23.0,15.8,74,29.61,10.0,North,27.6,35.7,N/A,,Overcast,350,2013-12-03 19:57:00
2:15 PM,22.8,14.9,72,29.60,10.0,NNW,26.5,32.2,N/A,,Overcast,340,2013-12-03 20:15:00
2:20 PM,23.0,15.8,74,29.60,10.0,NNW,26.5,32.2,N/A,,Overcast,340,2013-12-03 20:20:00
2:35 PM,22.6,14.4,71,29.61,10.0,North,24.2,33.4,N/A,,Overcast,350,2013-12-03 20:35:00
2:37 PM,21.2,14.0,74,29.61,10.0,NNW,23.0,33.4,N/A,,Overcast,340,2013-12-03 20:37:00
2:55 PM,21.0,12.7,70,29.59,10.0,North,25.3,36.8,N/A,,Overcast,350,2013-12-03 20:55:00
2:57 PM,21.2,12.2,68,29.59,10.0,North,26.5,33.4,N/A,,Overcast,350,2013-12-03 20:57:00
3:15 PM,21.2,13.1,71,29.57,10.0,North,24.2,29.9,N/A,,Overcast,360,2013-12-03 21:15:00
3:17 PM,21.2,12.2,68,29.57,10.0,North,21.9,29.9,N/A,,Overcast,360,2013-12-03 21:17:00
3:35 PM,20.3,13.1,74,29.61,10.0,North,23.0,29.9,N/A,,Overcast,350,2013-12-03 21:35:00
3:37 PM,19.4,12.2,74,29.61,10.0,North,26.5,31.1,N/A,,Overcast,350,2013-12-03 21:37:00
3:55 PM,20.1,13.1,74,29.60,7.0,North,21.9,27.6,N/A,,Overcast,350,2013-12-03 21:55:00
3:57 PM,19.4,12.2,74,29.60,7.0,North,23.0,27.6,N/A,,Overcast,360,2013-12-03 21:57:00
4:10 PM,19.2,12.7,76,29.60,5.0,North,20.7,26.5,N/A,,Haze,360,2013-12-03 22:10:00
4:23 PM,17.6,12.2,79,29.60,10.0,North,21.9,27.6,N/A,,Overcast,350,2013-12-03 22:23:00
4:35 PM,18.3,11.8,76,29.62,10.0,NNW,23.0,-,N/A,,Overcast,340,2013-12-03 22:35:00
4:37 PM,17.6,12.2,79,29.62,10.0,NNW,23.0,-,N/A,,Overcast,340,2013-12-03 22:37:00
4:55 PM,17.6,11.1,76,29.63,10.0,North,20.7,28.8,N/A,,Overcast,350,2013-12-03 22:55:00
4:57 PM,17.6,10.4,73,29.63,10.0,North,21.9,26.5,N/A,,Overcast,350,2013-12-03 22:57:00
5:15 PM,17.1,11.1,77,29.65,7.0,NNW,23.0,-,N/A,Snow,Light Snow,340,2013-12-03 23:15:00
5:24 PM,17.6,10.4,73,29.64,1.8,North,20.7,27.6,N/A,Snow,Light Snow,350,2013-12-03 23:24:00
5:35 PM,16.3,11.8,82,29.64,1.5,North,20.7,26.5,N/A,Snow,Light Snow,350,2013-12-03 23:35:00
5:55 PM,16.3,11.7,82,29.65,1.5,North,19.6,26.5,N/A,Snow,Light Snow,350,2013-12-03 23:55:00
5:58 PM,15.8,10.4,79,29.66,1.2,North,19.6,-,N/A,Snow,Light Snow,350,2013-12-03 23:58:00
6:15 PM,15.8,11.7,84,29.66,2.0,North,19.6,26.5,N/A,Snow,Light Snow,350,2013-12-04 00:15:00
6:35 PM,15.8,10.9,81,29.66,7.0,North,19.6,28.8,N/A,Snow,Light Snow,350,2013-12-04 00:35:00
6:40 PM,15.8,10.4,79,29.68,7.0,North,17.3,25.3,N/A,Snow,Light Snow,350,2013-12-04 00:40:00
6:55 PM,15.8,11.3,82,29.70,4.0,NNW,19.6,23.0,N/A,Snow,Light Snow,340,2013-12-04 00:55:00
7:00 PM,15.8,10.4,79,29.69,4.0,NNW,23.0,-,N/A,Snow,Light Snow,340,2013-12-04 01:00:00
7:15 PM,14.9,9.0,77,29.68,7.0,North,24.2,33.4,N/A,,Overcast,350,2013-12-04 01:15:00
7:35 PM,14.9,9.3,79,29.68,10.0,North,21.9,29.9,N/A,,Overcast,350,2013-12-04 01:35:00
7:55 PM,14.9,9.9,80,29.70,7.0,NNW,18.4,-,N/A,Snow,Light Snow,340,2013-12-04 01:55:00
8:15 PM,14.4,8.8,79,29.71,7.0,North,25.3,31.1,N/A,,Overcast,350,2013-12-04 02:15:00
8:35 PM,14.4,9.5,81,29.72,4.0,North,21.9,27.6,N/A,Snow,Light Snow,350,2013-12-04 02:35:00
8:55 PM,14.4,9.5,81,29.72,3.0,NNW,18.4,24.2,N/A,Snow,Light Snow,340,2013-12-04 02:55:00
9:15 PM,13.8,8.4,79,29.72,5.0,North,19.6,29.9,N/A,Snow,Light Snow,350,2013-12-04 03:15:00
9:35 PM,13.6,8.2,79,29.73,7.0,NNW,23.0,29.9,N/A,Snow,Light Snow,340,2013-12-04 03:35:00
9:55 PM,13.1,7.3,78,29.73,7.0,NNW,21.9,-,N/A,Snow,Light Snow,340,2013-12-04 03:55:00
10:03 PM,12.2,6.8,79,29.74,5.0,North,23.0,27.6,N/A,Snow,Light Snow,350,2013-12-04 04:03:00
10:15 PM,12.7,7.3,79,29.73,5.0,North,24.2,-,N/A,Snow,Light Snow,350,2013-12-04 04:15:00
10:35 PM,12.6,7.2,79,29.73,3.0,North,17.3,26.5,N/A,Snow,Light Snow,350,2013-12-04 04:35:00
10:55 PM,12.6,7.3,80,29.73,4.0,NNW,15.0,-,N/A,Snow,Light Snow,340,2013-12-04 04:55:00
11:15 PM,11.8,6.8,80,29.72,5.0,NNW,18.4,26.5,N/A,Snow,Light Snow,340,2013-12-04 05:15:00
11:35 PM,11.7,6.1,78,29.71,7.0,North,17.3,26.5,N/A,Snow,Light Snow,350,2013-12-04 05:35:00
11:55 PM,11.8,6.8,80,29.73,5.0,NNW,16.1,20.7,N/A,Snow,Light Snow,340,2013-12-04 05:55:00